Location: Fort Worth, Tx
(32.7431°N, 97.3695°W)
Time: 07:09:07
(UTC-04:00)

Vanguard 1 Rocket - Pass Details

Date: 03 March 2024
Orbit: 652 x 4219 km, 34.3° (Epoch: 22 April)

Event Time Altitude Azimuth Distance (km) Brightness Sun altitude
Exits shadow 07:02:31 - 240° (WSW) 8,349 11.8 -11.7°
Reaches altitude 10° 07:08:05 10° 240° (WSW) 7,419 11.5 -10.5°
Maximum altitude 07:33:59 78° 159° (SSE) 3,501 10.4 -5.0°
Drops below altitude 10° 07:49:40 10° 76° (ENE) 4,872 12.6 -1.8°
Sets 07:52:34 0° 75° (ENE) 5,519 12.9 -1.2°
